This is the latest recevied weather packets stored in our database for station/object OE3UKW. If no packets are shown the sender has not sent any weather packets the latest 10 day(s).
| Time | Temp. | Humidity | Pressure | Rain* | Wind** | Luminosity | Snow |
|---|---|---|---|---|---|---|---|
| 1777450271 | 12.22° C | 23% | 1024.8 hPa | 0 mm | - | 660 W/m² | - |
| 1777449671 | 12.22° C | 23% | 1024.9 hPa | 0 mm | - | 643 W/m² | - |
| 1777449071 | 11.67° C | 25% | 1024.9 hPa | 0 mm | - | 619 W/m² | - |
| 1777448471 | 11.67° C | 26% | 1024.7 hPa | 0 mm | - | 595 W/m² | - |
| 1777447871 | 11.67° C | 27% | 1024.7 hPa | 0 mm | - | 573 W/m² | - |
| 1777447271 | 11.11° C | 26% | 1024.7 hPa | 0 mm | - | 548 W/m² | - |
| 1777446671 | 10.56° C | 27% | 1024.6 hPa | 0 mm | - | 520 W/m² | - |
| 1777446071 | 10.56° C | 28% | 1024.6 hPa | 0 mm | - | 492 W/m² | - |
| 1777445471 | 10° C | 29% | 1024.6 hPa | 0 mm | - | 461 W/m² | - |
| 1777444871 | 10° C | 30% | 1024.6 hPa | 0 mm | - | 439 W/m² | - |
| 1777444270 | 9.44° C | 31% | 1024.5 hPa | 0 mm | - | 381 W/m² | - |
| 1777443671 | 9.44° C | 32% | 1024.7 hPa | 0 mm | - | 263 W/m² | - |
| 1777443086 | 8.89° C | 33% | 1024.7 hPa | 0 mm | - | 221 W/m² | - |
| 1777442470 | 8.33° C | 34% | 1024.7 hPa | 0 mm | - | 237 W/m² | - |
| 1777441870 | 7.78° C | 36% | 1024.7 hPa | 0 mm | - | 248 W/m² | - |
| 1777441270 | 7.22° C | 38% | 1024.7 hPa | 0 mm | - | 208 W/m² | - |
| 1777440670 | 6.67° C | 38% | 1024.6 hPa | 0 mm | - | 192 W/m² | - |
| 1777440070 | 6.11° C | 40% | 1024.6 hPa | 0 mm | - | 202 W/m² | - |
| 1777439472 | 5.56° C | 41% | 1024.4 hPa | 0 mm | - | 177 W/m² | - |
| 1777438870 | 5.56° C | 42% | 1024.4 hPa | 0 mm | - | 142 W/m² | - |
| 1777438270 | 5° C | 42% | 1024.3 hPa | 0 mm | - | 101 W/m² | - |
| 1777437670 | 4.44° C | 43% | 1024.1 hPa | 0 mm | - | 76 W/m² | - |
| 1777437070 | 3.89° C | 44% | 1024 hPa | 0 mm | - | 61 W/m² | - |
| 1777436470 | 3.33° C | 45% | 1024 hPa | 0 mm | - | 38 W/m² | - |
| 1777435870 | 3.33° C | 45% | 1024 hPa | 0 mm | - | 26 W/m² | - |
* Rain latest hour (hover to see other rain measurements)
** Current wind speed in m/s (hover to see current wind gust speed)